Вернуться в каталог

ONEWEB-0309

АктивенСвязьPO
NORAD 49095·PAYLOAD·🇬🇧 United Kingdom

Запущен Aug 21, 2021 с Baikonur Cosmodrome

Loading…

Ближайшие Пролёты (ближайшие 24 часа)

TLE

СвежийSource: CelesTrak SupGP

Эпоха: Sep 15, 2026, 00:21 UTC

1 49095C 21075W   26258.01511991  .00000567  00000+0  14622-2 0  2584
2 49095  87.9207 348.0239 0001405  99.8422 344.0495 13.17648838    14

Отслеживайте ONEWEB-0309 в реальном времени с AllMySat

Download on the App Store